GW7295 Weather Reports


Display with metric or nautical units.
time (UTC)temp
F
wind
direction
speed
MPH
gust
MPH
rain 1hr
in
rain 24hr
in
rain mn
in
humidity
%
barometer
mb
20260505223307 82 37 1.0 5.0 0.00 0.00 0.00 28 912.6
20260505222807 83 76 3.0 5.0 0.00 0.00 0.00 26 913.0
20260505222307 86 27 3.0 4.0 0.00 0.00 0.00 25 913.0
20260505221807 86 245 2.0 5.0 0.00 0.00 0.00 24 913.0
20260505221308 86 18 1.0 5.0 0.00 0.00 0.00 24 913.0
20260505220808 85 302 3.0 5.0 0.00 0.00 0.00 27 913.0
20260505220321 84 274 0.0 5.0 0.00 0.00 0.00 25 913.0
20260505215806 83 246 3.0 5.0 0.00 0.00 0.00 26 913.0
20260505215306 83 296 2.0 3.0 0.00 0.00 0.00 28 913.0
20260505214807 84 194 0.0 5.0 0.00 0.00 0.00 25 913.0
20260505214306 86 345 3.0 5.0 0.00 0.00 0.00 26 913.0
20260505213806 86 319 2.0 4.0 0.00 0.00 0.00 25 913.0
20260505213307 85 346 2.0 2.0 0.00 0.00 0.00 27 913.0
20260505212807 84 318 3.0 5.0 0.00 0.00 0.00 27 913.0
20260505212307 84 65 3.0 3.0 0.00 0.00 0.00 25 913.0
20260505211806 85 112 2.0 4.0 0.00 0.00 0.00 26 913.0
20260505211306 85 185 1.0 1.0 0.00 0.00 0.00 27 913.0
20260505210807 85 161 3.0 5.0 0.00 0.00 0.00 28 913.0
20260505210322 84 22 1.0 6.0 0.00 0.00 0.00 26 913.0
20260505205821 84 18 2.0 4.0 0.00 0.00 0.00 26 913.0
20260505205306 84 281 3.0 7.0 0.00 0.00 0.00 26 913.0
20260505204806 84 296 3.0 4.0 0.00 0.00 0.00 27 913.0
20260505204306 82 291 4.0 7.0 0.00 0.00 0.00 32 913.0
20260505203822 83 159 3.0 5.0 0.00 0.00 0.00 32 913.0
20260505203306 83 20 3.0 3.0 0.00 0.00 0.00 30 913.3
20260505202806 83 238 1.0 2.0 0.00 0.00 0.00 29 913.3
20260505202307 83 255 2.0 3.0 0.00 0.00 0.00 32 913.3
20260505201821 83 196 1.0 3.0 0.00 0.00 0.00 31 913.3
20260505201306 83 316 1.0 3.0 0.00 0.00 0.00 31 913.3
20260505200806 83 334 3.0 4.0 0.00 0.00 0.00 34 913.3
20260505200321 82 249 2.0 2.0 0.00 0.00 0.00 33 913.3
20260505195821 81 22 1.0 3.0 0.00 0.00 0.00 35 913.6
20260505195306 81 183 3.0 3.0 0.00 0.00 0.00 34 913.6
20260505194806 81 334 3.0 3.0 0.00 0.00 0.00 33 913.6
20260505194321 81 222 1.0 3.0 0.00 0.00 0.00 35 913.6
20260505193806 81 5 2.0 6.0 0.00 0.00 0.00 33 913.6
20260505193306 81 209 2.0 2.0 0.00 0.00 0.00 35 913.6
20260505192806 81 295 0.0 3.0 0.00 0.00 0.00 35 913.6
20260505192321 80 120 0.0 3.0 0.00 0.00 0.00 35 913.6
20260505191806 80 319 3.0 4.0 0.00 0.00 0.00 34 913.6
20260505191321 80 274 3.0 3.0 0.00 0.00 0.00 34 913.6
20260505190806 80 289 2.0 3.0 0.00 0.00 0.00 34 914.0
20260505190321 79 208 1.0 4.0 0.00 0.00 0.00 34 914.0
20260505185806 80 302 1.0 4.0 0.00 0.00 0.00 35 914.0
20260505185306 80 238 0.0 4.0 0.00 0.00 0.00 34 914.0
20260505184806 80 219 2.0 3.0 0.00 0.00 0.00 35 914.0
20260505184306 80 173 2.0 3.0 0.00 0.00 0.00 34 914.0
20260505183806 79 19 2.0 3.0 0.00 0.00 0.00 35 914.0
20260505183306 78 60 2.0 3.0 0.00 0.00 0.00 36 914.0
20260505182806 78 287 0.0 5.0 0.00 0.00 0.00 35 914.0
20260505182321 78 332 1.0 3.0 0.00 0.00 0.00 35 913.6
20260505181806 78 264 0.0 3.0 0.00 0.00 0.00 37 914.0
20260505181306 77 105 0.0 3.0 0.00 0.00 0.00 38 914.0
20260505180820 77 205 1.0 1.0 0.00 0.00 0.00 39 914.0
20260505180305 76 228 2.0 3.0 0.00 0.00 0.00 37 914.0
20260505175806 77 181 2.0 2.0 0.00 0.00 0.00 37 914.0
20260505175306 76 283 3.0 3.0 0.00 0.00 0.00 38 914.0
20260505174821 76 250 1.0 3.0 0.00 0.00 0.00 37 914.0
20260505174305 76 279 2.0 3.0 0.00 0.00 0.00 36 914.0
20260505173806 76 334 3.0 3.0 0.00 0.00 0.00 39 914.0
20260505173306 75 335 3.0 3.0 0.00 0.00 0.00 36 914.0
20260505172806 75 222 2.0 2.0 0.00 0.00 0.00 40 914.3
20260505172306 75 245 1.0 2.0 0.00 0.00 0.00 38 914.0
20260505171821 75 162 0.0 2.0 0.00 0.00 0.00 38 914.0
20260505171306 74 314 0.0 3.0 0.00 0.00 0.00 41 914.0
20260505170806 73 89 1.0 2.0 0.00 0.00 0.00 42 914.3
20260505170305 73 323 2.0 4.0 0.00 0.00 0.00 41 914.3
20260505165805 73 28 2.0 3.0 0.00 0.00 0.00 40 914.3
20260505165321 72 80 1.0 1.0 0.00 0.00 0.00 43 914.0
20260505164807 72 304 0.0 1.0 0.00 0.00 0.00 42 914.3
20260505164306 71 318 2.0 2.0 0.00 0.00 0.00 42 914.3
20260505163805 70 49 1.0 2.0 0.00 0.00 0.00 44 914.3
20260505163306 70 234 1.0 2.0 0.00 0.00 0.00 45 914.3
20260505162805 69 355 0.0 0.0 0.00 0.00 0.00 47 914.3
20260505162307 68 256 1.0 1.0 0.00 0.00 0.00 45 914.3
20260505161805 68 211 0.0 2.0 0.00 0.00 0.00 42 914.3
20260505161305 68 45 0.0 1.0 0.00 0.00 0.00 43 914.3
20260505160821 67 287 0.0 0.0 0.00 0.00 0.00 45 914.3
20260505160306 67 212 2.0 2.0 0.00 0.00 0.00 46 914.3
20260505153305 62 232 0.0 0.0 0.00 0.00 0.00 50 914.7
20260505152805 62 178 0.0 1.0 0.00 0.00 0.00 50 914.7
20260505152305 62 215 0.0 1.0 0.00 0.00 0.00 49 914.7
20260505151805 62 182 0.0 1.0 0.00 0.00 0.00 48 914.7
20260505151305 62 322 0.0 0.0 0.00 0.00 0.00 50 914.7
20260505150805 61 336 0.0 0.0 0.00 0.00 0.00 49 914.7
20260505150305 60 267 0.0 1.0 0.00 0.00 0.00 51 914.7
20260505140306 49 65 0.0 0.0 0.00 0.00 0.00 71 914.3
20260505130304 41 265 0.0 0.0 0.00 0.00 0.00 88 913.6
20260505124804 41 270 0.0 0.0 0.00 0.00 0.00 88 913.6
20260505124304 41 250 0.0 0.0 0.00 0.00 0.00 86 913.6
20260505123805 41 245 0.0 0.0 0.00 0.00 0.00 85 913.6
20260505123305 41 287 0.0 0.0 0.00 0.00 0.00 84 913.6
20260505122804 41 265 0.0 0.0 0.00 0.00 0.00 84 913.3
20260505122305 41 265 0.0 0.0 0.00 0.00 0.00 83 913.3
20260505121804 41 265 0.0 0.0 0.00 0.00 0.00 82 913.3
20260505121304 41 297 0.0 0.0 0.00 0.00 0.00 82 913.3
20260505120804 41 339 0.0 0.0 0.00 0.00 0.00 82 913.3
20260505120319 42 266 0.0 0.0 0.00 0.00 0.00 82 913.3
20260505115804 42 294 0.0 0.0 0.00 0.00 0.00 82 913.3
20260505115305 42 268 0.0 0.0 0.00 0.00 0.00 82 913.3
20260505114804 42 251 0.0 0.0 0.00 0.00 0.00 80 913.3
20260505114304 42 253 0.0 0.0 0.00 0.00 0.00 79 913.3
20260505113804 43 281 0.0 0.0 0.00 0.00 0.00 78 913.3
20260505113305 43 257 0.0 0.0 0.00 0.00 0.00 79 913.3
20260505112804 43 271 0.0 0.0 0.00 0.00 0.00 78 913.0
20260505112305 43 256 0.0 0.0 0.00 0.00 0.00 76 913.0
20260505111804 43 261 0.0 0.0 0.00 0.00 0.00 76 913.0
20260505111304 43 306 0.0 0.0 0.00 0.00 0.00 76 913.0
20260505110804 44 276 0.0 0.0 0.00 0.00 0.00 77 913.0
20260505110304 44 275 0.0 0.0 0.00 0.00 0.00 78 913.0
20260505101804 44 241 0.0 0.0 0.00 0.00 0.00 77 912.6
20260505101303 44 261 0.0 0.0 0.00 0.00 0.00 74 913.0
20260505100803 45 273 0.0 0.0 0.00 0.00 0.00 74 912.6
20260505100304 44 270 0.0 0.0 0.00 0.00 0.00 73 912.6
20260505095803 44 244 0.0 0.0 0.00 0.00 0.00 71 912.6
20260505095319 45 254 0.0 0.0 0.00 0.00 0.00 71 912.6
20260505094819 45 268 0.0 0.0 0.00 0.00 0.00 72 912.6
20260505094303 45 277 0.0 0.0 0.00 0.00 0.00 73 912.6
20260505093803 46 258 0.0 0.0 0.00 0.00 0.00 73 912.6
20260505093318 46 299 0.0 0.0 0.00 0.00 0.00 74 912.6
20260505092804 46 243 0.0 0.0 0.00 0.00 0.00 73 912.6
20260505092305 46 255 0.0 0.0 0.00 0.00 0.00 73 912.6
20260505091803 46 273 0.0 0.0 0.00 0.00 0.00 75 912.6
20260505091305 46 258 0.0 0.0 0.00 0.00 0.00 72 912.6
20260505090805 46 262 0.0 0.0 0.00 0.00 0.00 67 912.6
20260505090303 46 197 0.0 0.0 0.00 0.00 0.00 68 912.6
20260505085805 47 285 0.0 0.0 0.00 0.00 0.00 69 912.6
20260505085304 47 277 0.0 0.0 0.00 0.00 0.00 69 912.6
20260505084804 47 281 0.0 0.0 0.00 0.00 0.00 65 912.6
20260505084303 48 273 0.0 0.0 0.00 0.00 0.00 63 912.6
20260505083804 48 302 0.0 0.0 0.00 0.00 0.00 63 912.6
20260505083303 49 293 0.0 0.0 0.00 0.00 0.00 63 912.6
20260505082803 49 281 0.0 0.0 0.00 0.00 0.00 63 912.6
20260505082304 50 286 0.0 0.0 0.00 0.00 0.00 63 912.6
20260505081803 50 233 0.0 0.0 0.00 0.00 0.00 61 912.6
20260505081303 50 264 0.0 2.0 0.00 0.00 0.00 58 912.6
20260505080819 50 267 0.0 0.0 0.00 0.00 0.00 59 912.6
20260505080303 50 210 0.0 0.0 0.00 0.00 0.00 61 912.6
20260505075803 50 55 0.0 0.0 0.00 0.00 0.00 61 912.3
20260505075318 50 228 0.0 0.0 0.00 0.00 0.00 65 912.3
20260505074818 49 310 0.0 0.0 0.00 0.00 0.00 63 912.6
20260505074303 50 302 0.0 0.0 0.00 0.00 0.00 64 912.6
20260505073803 50 274 0.0 0.0 0.00 0.00 0.00 64 912.6
20260505073303 51 284 0.0 0.0 0.00 0.00 0.00 64 912.6
20260505072803 51 285 0.0 0.0 0.00 0.00 0.00 64 912.6
20260505072305 51 234 0.0 0.0 0.00 0.00 0.00 63 912.3
20260505071818 52 260 0.0 0.0 0.00 0.00 0.00 56 912.6
20260505071303 52 305 0.0 0.0 0.00 0.00 0.00 56 912.3
20260505070803 53 268 0.0 0.0 0.00 0.00 0.00 56 912.3
20260505070303 53 241 0.0 2.0 0.00 0.00 0.00 58 912.3
20260505065803 53 256 0.0 0.0 0.00 0.00 0.00 53 912.3
20260505065318 54 334 0.0 0.0 0.00 0.00 0.00 53 912.3
20260505064819 55 235 0.0 0.0 0.00 0.00 0.00 53 912.3
20260505064303 55 253 0.0 0.0 0.00 0.00 0.00 54 912.3
20260505063803 56 252 0.0 0.0 0.00 0.00 0.00 48 912.3
20260505063303 57 268 0.0 0.0 0.00 0.00 0.00 48 912.3
20260505062803 58 265 0.0 0.0 0.00 0.00 0.00 47 912.3
20260505062304 58 253 0.0 3.0 0.00 0.00 0.00 44 912.3
20260505061803 59 4 0.0 0.0 0.00 0.00 0.00 41 912.0
20260505061318 59 344 0.0 0.0 0.00 0.00 0.00 41 912.3
20260505060803 60 266 0.0 1.0 0.00 0.00 0.00 42 912.0
20260505060303 60 332 3.0 3.0 0.00 0.00 0.00 38 912.0
20260505055803 60 36 0.0 3.0 0.00 0.00 0.00 39 912.3
20260505055317 60 339 0.0 0.0 0.00 0.00 0.00 39 912.3
20260505054803 60 116 0.0 2.0 0.00 0.00 0.00 38 912.3
20260505054302 60 276 0.0 4.0 0.00 0.00 0.00 39 912.0
20260505053818 59 321 1.0 3.0 0.00 0.00 0.00 40 912.3
20260505053303 59 248 0.0 0.0 0.00 0.00 0.00 42 912.3
20260505052803 59 230 0.0 0.0 0.00 0.00 0.00 46 912.3
20260505052304 60 276 0.0 0.0 0.00 0.00 0.00 47 912.3
20260505051802 61 277 0.0 0.0 0.00 0.00 0.00 43 912.0
20260505051302 61 249 2.0 2.0 0.00 0.00 0.00 41 912.0
20260505050803 62 249 0.0 0.0 0.00 0.00 0.00 41 912.0
20260505050318 63 212 0.0 0.0 0.00 0.00 0.00 38 912.0
20260505041302 64 318 0.0 3.0 0.00 0.00 0.00 37 911.3
20260505040802 64 310 0.0 2.0 0.00 0.00 0.00 36 911.3
20260505040302 64 68 0.0 1.0 0.00 0.00 0.00 35 911.3
20260505035802 65 38 0.0 1.0 0.00 0.00 0.00 35 910.9
20260505035304 65 346 0.0 1.0 0.00 0.00 0.00 34 910.9
20260505034802 66 288 0.0 3.0 0.00 0.00 0.00 34 910.9
20260505034302 66 19 3.0 3.0 0.00 0.00 0.00 33 910.6
20260505033802 67 205 2.0 3.0 0.00 0.00 0.00 33 910.6
20260505033302 67 291 3.0 5.0 0.00 0.00 0.00 32 910.6
20260505032802 68 118 0.0 5.0 0.00 0.00 0.00 32 910.6
20260505032301 68 221 1.0 5.0 0.00 0.00 0.00 32 910.3
20260505031802 69 314 1.0 3.0 0.00 0.00 0.00 31 910.3
20260505031317 69 305 2.0 6.0 0.00 0.00 0.00 31 910.3
20260505030802 70 340 0.0 9.0 0.00 0.00 0.00 30 910.3
20260505030302 70 78 2.0 8.0 0.00 0.00 0.00 29 909.9
20260505025802 71 290 8.0 8.0 0.00 0.00 0.00 29 909.9
20260505025304 71 341 3.0 6.0 0.00 0.00 0.00 28 909.9
20260505024802 71 61 3.0 6.0 0.00 0.00 0.00 28 909.9
20260505024302 72 282 1.0 1.0 0.00 0.00 0.00 28 909.6
20260505023802 72 304 7.0 7.0 0.00 0.00 0.00 28 909.6
20260505023302 73 331 3.0 3.0 0.00 0.00 0.00 28 909.6
20260505022802 73 17 1.0 4.0 0.00 0.00 0.00 28 909.6
20260505022317 74 347 5.0 5.0 0.00 0.00 0.00 28 909.6
20260505021802 74 147 3.0 6.0 0.00 0.00 0.00 27 909.6
20260505021301 74 1 3.0 9.0 0.00 0.00 0.00 27 909.6
20260505020802 75 359 3.0 5.0 0.00 0.00 0.00 28 909.6
20260505020302 75 111 7.0 8.0 0.00 0.00 0.00 26 909.6
20260505015801 76 247 7.0 7.0 0.00 0.00 0.00 27 909.6
20260505015317 77 280 2.0 3.0 0.00 0.00 0.00 27 909.2
20260505014802 77 304 3.0 5.0 0.00 0.00 0.00 27 909.2
20260505014302 77 241 3.0 5.0 0.00 0.00 0.00 27 909.2
20260505013801 77 319 3.0 8.0 0.00 0.00 0.00 27 909.6
20260505013302 78 342 3.0 4.0 0.00 0.00 0.00 26 909.2
20260505012801 78 46 1.0 6.0 0.00 0.00 0.00 26 909.6
20260505012301 78 323 2.0 5.0 0.00 0.00 0.00 25 909.6
20260505011803 78 5 3.0 8.0 0.00 0.00 0.00 25 909.6
20260505011302 78 19 3.0 4.0 0.00 0.00 0.00 26 909.6
20260505010801 79 69 2.0 3.0 0.00 0.00 0.00 27 909.6
20260505010301 79 298 3.0 5.0 0.00 0.00 0.00 25 909.6
20260505005816 79 207 5.0 5.0 0.00 0.00 0.00 25 909.6
20260505005316 78 352 3.0 5.0 0.00 0.00 0.00 26 909.6
20260505004816 78 245 2.0 3.0 0.00 0.00 0.00 27 909.6
20260505004301 77 285 3.0 5.0 0.00 0.00 0.00 27 909.6
20260505003800 77 297 2.0 2.0 0.00 0.00 0.00 28 909.6
20260505003300 77 289 1.0 1.0 0.00 0.00 0.00 27 909.6
20260505002801 78 313 2.0 3.0 0.00 0.00 0.00 27 909.6
20260505002316 79 56 1.0 2.0 0.00 0.00 0.00 27 909.6
20260505001801 80 284 3.0 3.0 0.00 0.00 0.00 26 909.6
20260505001301 82 298 5.0 5.0 0.00 0.00 0.00 25 909.6
20260505000801 83 267 1.0 4.0 0.00 0.00 0.00 24 909.6
20260505000300 84 291 3.0 5.0 0.00 0.00 0.00 23 909.6
20260504235801 83 250 3.0 4.0 0.00 0.00 0.00 23 909.6
20260504235301 82 292 3.0 4.0 0.00 0.00 0.00 23 909.6
20260504234801 83 273 3.0 5.0 0.00 0.00 0.00 22 909.6
20260504234301 84 29 5.0 6.0 0.00 0.00 0.00 22 909.6
20260504233817 86 291 4.0 6.0 0.00 0.00 0.00 21 909.6
20260504233301 85 275 3.0 5.0 0.00 0.00 0.00 21 909.6
20260504232801 85 15 3.0 4.0 0.00 0.00 0.00 21 909.6
20260504232300 85 351 2.0 3.0 0.00 0.00 0.00 21 909.6
20260504231800 86 323 3.0 3.0 0.00 0.00 0.00 21 909.6
20260504231300 86 275 4.0 4.0 0.00 0.00 0.00 21 909.9
20260504230800 86 118 2.0 3.0 0.00 0.00 0.00 21 909.6
20260504230300 85 180 2.0 3.0 0.00 0.00 0.00 20 909.9
20260504225801 85 250 3.0 5.0 0.00 0.00 0.00 21 909.9
20260504225300 85 317 2.0 5.0 0.00 0.00 0.00 22 909.9
20260504224800 85 310 3.0 4.0 0.00 0.00 0.00 19 909.9
20260504224300 85 51 3.0 6.0 0.00 0.00 0.00 19 909.9
20260504223800 85 99 3.0 3.0 0.00 0.00 0.00 19 910.3